GW0632 Weather Reports


time (UTC)temp
C
wind
direction
speed
KPH
gust
KPH
rain 1hr
cm
rain 24hr
cm
rain mn
cm
humidity
%
barometer
mb
20260503025644 8 2 0.0 0.0 0.00 0.15 0.15 99 1013.4
20260503025142 8 5 0.0 0.0 0.00 0.15 0.15 99 1013.2
20260503024638 8 4 0.0 0.0 0.00 0.15 0.15 99 1013.5
20260503024136 8 15 0.0 0.0 0.00 0.15 0.15 99 1013.4
20260503023627 8 15 0.0 0.0 0.00 0.15 0.15 99 1013.2
20260503023124 8 16 0.0 0.0 0.00 0.15 0.15 99 1013.2
20260503022619 8 18 0.0 0.0 0.00 0.15 0.15 99 1013.5
20260503022114 8 12 0.0 0.0 0.00 0.15 0.15 99 1013.4
20260503021612 8 9 0.0 0.0 0.00 0.15 0.15 99 1013.3
20260503021108 8 11 0.0 0.0 0.00 0.15 0.15 99 1013.3
20260503020605 8 10 0.0 0.0 0.00 0.15 0.15 99 1013.1
20260503015559 8 8 0.0 0.0 0.00 0.15 0.15 99 1013.4
20260503015056 8 7 0.0 0.0 0.00 0.15 0.15 99 1013.6
20260503014552 8 338 0.0 0.0 0.00 0.15 0.15 99 1013.5
20260503014050 8 7 0.0 0.0 0.00 0.15 0.15 99 1013.6
20260503013547 8 3 0.0 0.0 0.00 0.15 0.15 99 1013.9
20260503013045 8 6 0.0 0.0 0.00 0.15 0.15 99 1013.6
20260503012542 8 341 0.0 1.6 0.00 0.15 0.15 99 1013.6
20260503012038 8 8 0.0 0.0 0.00 0.15 0.15 99 1013.5
20260503011535 8 8 0.0 0.0 0.00 0.15 0.15 99 1013.4
20260503011032 8 8 0.0 0.0 0.00 0.15 0.15 99 1013.5
20260503010528 8 6 0.0 1.6 0.00 0.15 0.15 99 1013.2
20260503010026 8 11 0.0 0.0 0.00 0.15 0.15 99 1013.3
20260503005523 8 12 0.0 0.0 0.00 0.15 0.15 99 1013.4
20260503005020 8 11 0.0 0.0 0.00 0.15 0.15 99 1013.2
20260503004516 8 10 0.0 0.0 0.00 0.15 0.15 99 1013.2
20260503004015 8 10 0.0 0.0 0.00 0.15 0.15 99 1012.9
20260503003511 8 10 0.0 0.0 0.00 0.15 0.15 99 1013.0
20260503003008 8 6 0.0 0.0 0.00 0.15 0.15 99 1013.0
20260503002505 8 5 0.0 0.0 0.00 0.15 0.15 98 1013.1
20260503002001 8 0 0.0 0.0 0.00 0.15 0.15 98 1013.0
20260503001458 9 355 0.0 1.6 0.00 0.15 0.15 98 1013.1
20260503000956 9 13 0.0 0.0 0.00 0.15 0.15 98 1012.9
20260503000453 9 13 0.0 0.0 0.00 0.15 0.15 98 1013.0
20260502235950 9 4 0.0 0.0 0.00 0.15 0.15 98 1012.9
20260502235447 9 351 0.0 1.6 0.00 0.15 0.15 98 1013.2
20260502234944 9 4 0.0 0.0 0.00 0.15 0.15 97 1013.1
20260502234440 10 356 0.0 0.0 0.00 0.15 0.15 97 1013.0
20260502233938 9 353 0.0 1.6 0.00 0.15 0.15 97 1012.9
20260502233433 9 324 1.6 1.6 0.00 0.15 0.15 97 1013.2
20260502232930 10 332 1.6 1.6 0.00 0.15 0.15 97 1013.0
20260502232426 10 20 0.0 0.0 0.00 0.15 0.15 97 1012.9
20260502231923 10 6 0.0 0.0 0.00 0.15 0.15 96 1013.3
20260502231421 10 19 0.0 0.0 0.00 0.15 0.15 96 1013.0
20260502230919 10 9 0.0 0.0 0.00 0.15 0.15 96 1013.0
20260502230417 10 17 0.0 0.0 0.00 0.15 0.15 96 1013.2
20260502225915 9 14 0.0 0.0 0.00 0.15 0.15 95 1013.1
20260502225410 10 350 0.0 1.6 0.00 0.15 0.15 96 1013.0
20260502224907 9 11 0.0 0.0 0.00 0.15 0.15 96 1012.9
20260502224403 10 24 0.0 1.6 0.00 0.15 0.15 96 1013.1
20260502223900 10 23 0.0 1.6 0.00 0.15 0.15 96 1012.8
20260502223358 9 40 1.6 1.6 0.00 0.15 0.15 95 1012.9
20260502222856 10 66 1.6 3.2 0.00 0.15 0.15 94 1012.9
20260502222353 9 26 0.0 1.6 0.00 0.15 0.15 93 1012.9
20260502221849 9 18 0.0 0.0 0.13 0.15 0.15 93 1013.3
20260502221345 10 358 0.0 1.6 0.13 0.15 0.15 93 1013.0
20260502220843 10 352 0.0 1.6 0.00 0.13 0.13 93 1013.1
20260502220338 10 11 0.0 0.0 0.00 0.13 0.13 93 1013.1
20260502215835 10 335 1.6 1.6 0.18 0.13 0.13 92 1013.3
20260502215333 10 332 1.6 3.2 0.18 0.13 0.13 91 1013.3
20260502214829 10 6 0.0 1.6 0.00 0.10 0.10 90 1013.3
20260502214325 10 357 1.6 3.2 0.00 0.10 0.10 89 1013.0
20260502213824 10 281 3.2 3.2 0.00 0.10 0.10 88 1013.1
20260502213321 10 233 3.2 3.2 0.00 0.10 0.10 87 1013.2
20260502212819 10 359 1.6 4.8 0.00 0.10 0.10 86 1013.0
20260502212317 10 352 3.2 8.0 0.00 0.10 0.10 84 1012.9
20260502211814 11 4 1.6 8.0 0.00 0.10 0.10 82 1013.2
20260502211310 11 287 4.8 8.0 0.00 0.10 0.10 78 1013.1
20260502210808 11 289 0.0 4.8 0.00 0.10 0.10 79 1013.1
20260502210305 12 157 1.6 4.8 0.00 0.10 0.10 78 1012.9
20260502205802 12 264 8.0 9.7 0.00 0.10 0.10 78 1012.8
20260502205258 12 28 0.0 9.7 0.00 0.10 0.10 78 1012.6
20260502204755 12 111 6.4 12.9 0.00 0.10 0.10 76 1012.8
20260502204252 12 260 4.8 9.7 0.00 0.10 0.10 75 1012.9
20260502203749 12 247 3.2 12.9 0.00 0.10 0.10 75 1012.8
20260502203247 12 173 3.2 9.7 0.00 0.10 0.10 74 1012.8
20260502202741 12 211 4.8 8.0 0.00 0.10 0.10 73 1012.7
20260502202240 12 98 3.2 9.7 0.00 0.10 0.10 73 1012.8
20260502201738 12 311 4.8 12.9 0.00 0.10 0.10 73 1012.9
20260502201233 12 94 4.8 12.9 0.00 0.10 0.10 73 1013.3
20260502200730 12 166 6.4 12.9 0.00 0.10 0.10 73 1012.9
20260502200226 12 185 8.0 12.9 0.00 0.10 0.10 71 1013.0
20260502195725 13 269 6.4 8.0 0.00 0.10 0.10 68 1012.8
20260502195221 13 195 8.0 14.5 0.00 0.10 0.10 64 1013.0
20260502194717 12 107 1.6 14.5 0.00 0.10 0.10 70 1013.1
20260502194215 12 216 9.7 20.9 0.00 0.10 0.10 69 1013.3
20260502193710 12 219 8.0 20.9 0.00 0.10 0.10 73 1013.2
20260502193208 12 107 6.4 9.7 0.00 0.10 0.10 72 1013.4
20260502192703 13 170 9.7 12.9 0.00 0.10 0.10 72 1013.7
20260502192200 12 263 8.0 9.7 0.00 0.10 0.10 73 1013.7
20260502191657 12 282 9.7 12.9 0.00 0.10 0.10 71 1013.6
20260502191149 11 257 6.4 17.7 0.00 0.10 0.10 73 1013.6
20260502190646 12 69 1.6 9.7 0.00 0.10 0.10 74 1013.6
20260502190144 12 260 6.4 11.3 0.00 0.10 0.10 74 1013.7
20260502185638 12 326 0.0 8.0 0.00 0.10 0.10 75 1013.5
20260502185135 11 311 3.2 11.3 0.00 0.10 0.10 75 1013.5
20260502184631 11 258 4.8 9.7 0.00 0.10 0.10 82 1013.7
20260502184121 12 213 9.7 20.9 0.00 0.10 0.10 82 1013.6
20260502183618 12 218 6.4 12.9 0.00 0.10 0.10 84 1013.7
20260502183114 11 216 6.4 8.0 0.00 0.10 0.10 86 1013.9
20260502182609 10 272 3.2 11.3 0.00 0.10 0.10 88 1013.8
20260502182105 10 232 4.8 16.1 0.00 0.10 0.10 88 1013.9
20260502181603 10 228 8.0 12.9 0.00 0.10 0.10 90 1014.0
20260502181102 10 234 3.2 11.3 0.00 0.10 0.10 91 1013.7
20260502180559 10 34 1.6 8.0 0.00 0.10 0.10 92 1013.8
20260502170518 11 356 3.2 3.2 0.00 0.05 0.05 78 1014.3
20260502164001 11 3 1.6 8.0 0.00 0.03 0.03 72 1014.4
20260502163457 11 311 6.4 8.0 0.00 0.03 0.03 71 1014.3
20260502162954 11 233 6.4 9.7 0.00 0.03 0.03 69 1014.2
20260502162451 12 262 4.8 16.1 0.00 0.03 0.03 66 1014.3
20260502161948 12 246 4.8 17.7 0.00 0.03 0.03 64 1014.5
20260502161445 12 341 1.6 12.9 0.00 0.03 0.03 69 1014.2
20260502160943 12 296 1.6 8.0 0.00 0.03 0.03 71 1014.1
20260502160441 12 329 1.6 4.8 0.00 0.03 0.03 71 1014.4
20260502151924 11 7 0.0 3.2 0.00 0.03 0.03 81 1014.7
20260502151420 12 23 1.6 3.2 0.00 0.03 0.03 81 1014.8
20260502150918 12 210 3.2 8.0 0.00 0.03 0.03 79 1015.0
20260502150414 12 123 3.2 4.8 0.00 0.03 0.03 78 1014.6
20260502130300 9 22 1.6 3.2 0.00 0.00 0.00 90 1015.2
20260502123746 10 318 1.6 4.8 0.00 0.00 0.00 84 1015.7
20260502123243 10 247 4.8 4.8 0.00 0.00 0.00 84 1015.8
20260502122739 10 342 1.6 4.8 0.00 0.00 0.00 84 1015.8
20260502122235 10 329 4.8 9.7 0.00 0.00 0.00 83 1015.6
20260502121734 10 354 3.2 4.8 0.00 0.00 0.00 83 1015.6
20260502121231 10 291 6.4 11.3 0.00 0.00 0.00 83 1015.3
20260502120727 10 265 4.8 8.0 0.00 0.00 0.00 83 1015.1
20260502120224 10 274 4.8 8.0 0.00 0.00 0.00 83 1015.2
20260502115722 9 338 3.2 8.0 0.00 0.00 0.00 83 1015.1
20260502115219 9 262 4.8 4.8 0.00 0.00 0.00 83 1014.8
20260502114714 10 220 3.2 4.8 0.00 0.00 0.00 82 1014.7
20260502114212 10 191 1.6 3.2 0.00 0.00 0.00 84 1014.8
20260502113709 9 308 3.2 4.8 0.00 0.00 0.00 84 1014.7
20260502113207 9 324 3.2 3.2 0.00 0.00 0.00 85 1014.8
20260502112705 9 226 3.2 3.2 0.00 0.00 0.00 84 1014.9
20260502112202 8 1 0.0 3.2 0.00 0.00 0.00 85 1014.8
20260502111659 8 357 0.0 1.6 0.00 0.00 0.00 84 1014.7
20260502111157 8 356 0.0 4.8 0.00 0.00 0.00 84 1014.6
20260502110654 8 239 4.8 4.8 0.00 0.00 0.00 84 1015.0
20260502110151 8 240 3.2 3.2 0.00 0.00 0.00 85 1014.8
20260502105649 8 322 1.6 1.6 0.00 0.00 0.00 85 1014.6
20260502105146 8 31 1.6 1.6 0.00 0.00 0.00 84 1014.5
20260502104643 8 298 1.6 3.2 0.00 0.00 0.00 84 1014.9
20260502104141 8 310 1.6 1.6 0.00 0.00 0.00 84 1014.8
20260502103638 8 324 1.6 3.2 0.00 0.00 0.00 84 1014.4
20260502103136 8 37 1.6 1.6 0.00 0.00 0.00 84 1014.5
20260502102632 8 239 3.2 3.2 0.00 0.00 0.00 84 1014.7
20260502102129 8 261 3.2 4.8 0.00 0.00 0.00 85 1014.8
20260502101627 8 37 0.0 1.6 0.00 0.00 0.00 85 1014.5
20260502101125 8 349 1.6 3.2 0.00 0.00 0.00 85 1014.4
20260502100624 8 339 1.6 1.6 0.00 0.00 0.00 86 1014.3
20260502100121 8 299 3.2 3.2 0.00 0.00 0.00 87 1014.1
20260502091055 8 317 1.6 3.2 0.00 0.00 0.00 86 1014.3
20260502090552 8 11 1.6 3.2 0.00 0.00 0.00 87 1014.0
20260502071446 9 329 1.6 3.2 0.00 0.00 0.00 75 1014.3
20260502070944 9 330 1.6 1.6 0.00 0.00 0.00 75 1014.2
20260502070442 9 10 0.0 0.0 0.00 0.00 0.00 74 1014.1
20260502065941 10 195 1.6 1.6 0.00 0.00 0.00 74 1014.4
20260502065439 9 311 3.2 3.2 0.00 0.00 0.00 73 1014.4
20260502064936 10 3 0.0 4.8 0.00 0.00 0.00 73 1014.5
20260502064434 10 314 3.2 4.8 0.00 0.00 0.00 73 1014.5
20260502063931 9 262 3.2 4.8 0.00 0.00 0.00 73 1014.3
20260502063429 9 317 1.6 3.2 0.00 0.00 0.00 73 1014.5
20260502062926 9 356 0.0 3.2 0.00 0.00 0.00 72 1014.5
20260502062423 9 338 1.6 1.6 0.00 0.00 0.00 72 1014.4
20260502061922 9 295 3.2 4.8 0.00 0.00 0.00 72 1014.5
20260502061420 9 344 1.6 1.6 0.00 0.00 0.00 72 1014.3
20260502060915 9 344 1.6 1.6 0.00 0.00 0.00 71 1014.3
20260502060410 10 268 3.2 3.2 0.00 0.00 0.00 71 1014.5
20260502055908 10 318 1.6 3.2 0.00 0.00 0.00 71 1014.6
20260502055405 10 1 1.6 3.2 0.00 0.00 0.00 70 1014.3
20260502054900 10 359 1.6 8.0 0.00 0.00 0.00 70 1014.5
20260502054357 10 346 1.6 3.2 0.00 0.00 0.00 70 1014.6
20260502053854 10 303 3.2 4.8 0.00 0.00 0.00 69 1014.3
20260502053351 10 338 0.0 8.0 0.00 0.00 0.00 69 1014.5
20260502052849 10 318 1.6 4.8 0.00 0.00 0.00 69 1014.5
20260502052347 10 307 1.6 4.8 0.00 0.00 0.00 68 1014.4
20260502051844 10 359 0.0 1.6 0.00 0.00 0.00 68 1014.4
20260502051343 10 294 3.2 3.2 0.00 0.00 0.00 67 1014.6
20260502050839 10 251 4.8 4.8 0.00 0.00 0.00 67 1014.3
20260502050335 10 219 1.6 4.8 0.00 0.00 0.00 67 1014.6
20260502045833 10 305 1.6 3.2 0.00 0.00 0.00 66 1014.5
20260502045329 10 344 1.6 3.2 0.00 0.00 0.00 66 1014.7
20260502044827 10 330 1.6 3.2 0.00 0.00 0.00 65 1014.6
20260502044322 10 2 0.0 3.2 0.00 0.00 0.00 65 1014.6
20260502043820 10 19 0.0 1.6 0.00 0.00 0.00 65 1014.7
20260502043317 10 355 1.6 3.2 0.00 0.00 0.00 64 1014.7
20260502042817 10 339 1.6 1.6 0.00 0.00 0.00 63 1014.8
20260502042314 10 304 1.6 3.2 0.00 0.00 0.00 63 1014.6
20260502041812 10 2 0.0 0.0 0.00 0.00 0.00 64 1014.3
20260502041309 10 357 0.0 1.6 0.00 0.00 0.00 63 1014.6
20260502040806 10 356 0.0 1.6 0.00 0.00 0.00 62 1014.6
20260502040303 10 11 0.0 1.6 0.00 0.00 0.00 62 1014.7
20260502035759 10 11 0.0 1.6 0.00 0.00 0.00 61 1014.7
20260502035255 10 311 1.6 3.2 0.00 0.00 0.00 61 1014.6
20260502034753 10 263 3.2 3.2 0.00 0.00 0.00 60 1014.7
20260502034251 10 5 0.0 1.6 0.00 0.00 0.00 60 1014.6
20260502033749 10 349 1.6 3.2 0.00 0.00 0.00 60 1014.7
20260502033246 10 323 1.6 4.8 0.00 0.00 0.00 59 1014.8
20260502032743 10 358 0.0 3.2 0.00 0.00 0.00 60 1015.0
20260502032239 10 3 0.0 1.6 0.00 0.00 0.00 61 1014.8
20260502031737 10 8 0.0 1.6 0.00 0.00 0.00 60 1014.7
20260502031235 10 357 0.0 1.6 0.00 0.00 0.00 60 1014.9
20260502030733 10 257 3.2 3.2 0.00 0.00 0.00 59 1014.5
20260502030231 10 357 0.0 1.6 0.00 0.00 0.00 58 1014.5
20260502025728 10 330 1.6 3.2 0.00 0.00 0.00 58 1014.5